Location: Unspecified
(0.0000°N, 0.0000°E)
Time: 08:59:12
(UTC+00:00)

Hubble Space Telescope - Pass Details

Date: 28 April 2017
Orbit: 538 x 542 km, 28.5° (Epoch: 17 August)

Event Time Altitude Azimuth Distance (km) Brightness Sun altitude
Rises 19:33:42 0° 302° (WNW) 2,676 5.6 -23.3°
Reaches altitude 10° 19:35:57 10° 303° (WNW) 1,787 4.4 -23.8°
Enters shadow 19:39:30 63° 319° (NW) 599 1.1 -24.7°
